Temperature
16 16 16 16 16 16 16 16 17 17 17 17 17 17 16 16 16 16 16 16 16 16 16 16 15 15 15 15 15 15 15 15 15 15 15 15 15 15 15 15 15 15 15
16 16 16 16 16 16 16 16 17 17 17 17 17 16 16 16 16 16 16 16 16 16 15 15 15 15 15 15 15 15 15 15 15 15 15 15 15 15 15 14 14 14 14
16 16 16 16 16 16 16 16 16 16 16 16 16 16 16 16 16 16 16 16 16 16 15 15 15 15 15 15 15 15 15 15 15 14 14 15 15 15 14 14 14 14 14
16 15 15 16 16 16 16 16 16 16 16 16 16 16 16 16 16 16 16 16 16 16 15 15 15 15 15 15 15 15 15 14 14 14 14 14 14 14 14 14 14 14 14
15 15 15 15 16 16 16 16 16 16 16 16 16 16 16 16 16 16 16 16 16 16 15 15 15 15 15 15 15 15 14 14 14 14 14 14 14 14 14 14 14 14 14
15 15 15 15 15 16 16 16 16 16 16 16 16 16 16 16 16 16 16 16 16 15 15 15 15 15 15 15 15 15 14 14 14 14 14 14 14 14 14 14 14 14 14
15 15 15 15 15 16 16 16 16 16 16 16 16 16 16 16 16 16 16 16 16 15 15 15 15 15 15 15 15 15 14 14 14 14 14 14 14 14 14 14 14 14 14
15 15 15 15 15 15 15 15 15 15 15 15 15 15 15 15 15 15 15 15 15 15 15 15 15 15 15 15 14 14 14 14 14 14 14 14 14 14 14 14 14 14 14
14 14 14 15 15 15 15 15 15 15 15 15 15 15 15 15 15 15 15 15 15 15 15 15 15 15 15 15 14 14 14 14 14 14 14 14 14 14 14 14 14 14 14
14 14 14 14 15 15 15 15 15 15 15 15 15 15 15 15 15 15 15 15 15 15 15 15 15 15 14 14 14 14 14 14 14 14 14 14 14 14 14 14 14 14 14
14 14 14 14 14 14 14 14 15 15 15 15 15 15 15 15 15 15 15 14 14 14 14 14 14 14 14 14 14 14 14 14 14 14 14 13 13 13 13 13 14 14 13
13 14 14 14 14 14 14 14 14 14 14 14 14 14 14 14 14 14 14 14 14 14 14 14 14 14 14 14 14 14 14 14 13 13 13 13 13 13 13 13 13 13 13
13 13 13 13 14 14 14 14 14 14 14 14 14 14 14 14 14 14 14 14 14 14 14 14 14 14 14 14 13 13 13 13 13 13 13 13 13 13 13 13 13 13 13
13 13 13 13 13 13 14 14 14 14 14 14 14 14 14 14 14 14 14 14 13 13 13 13 13 13 13 13 13 13 13 13 13 13 13 13 13 13 13 13 13 13 13
12 12 13 13 13 13 13 13 13 13 13 13 13 13 13 14 14 13 13 13 13 13 13 13 13 13 13 13 13 13 13 13 13 12 12 12 12 12 12 13 12 13 13
12 12 12 13 13 13 13 13 13 13 13 13 13 13 13 13 13 13 13 13 13 13 13 13 13 13 13 13 13 12 12 12 12 12 12 12 12 12 12 12 12 12 12
12 12 12 12 12 12 12 12 12 12 12 12 13 13 13 13 13 13 13 13 12 12 12 12 12 12 12 12 12 12 12 12 12 12 12 12 12 12 12 12 12 12 12
11 12 12 12 12 12 12 12 12 12 12 12 12 12 12 12 12 12 12 12 12 12 12 12 12 12 12 12 12 12 12 12 12 11 11 11 11 11 11 11 11 11 11
11 11 11 11 11 11 11 11 11 12 12 12 12 12 12 12 12 12 12 11 11 11 11 11 11 11 11 11 11 11 11 11 11 11 11 10 10 10 10 10 11 11 11
10 10 11 11 11 11 11 11 11 11 11 11 11 11 11 11 11 11 11 11 11 11 11 11 11 11 11 11 11 11 11 10 10 10 10 10 10 10 10 10 10 10 10
10 10 10 10 11 11 11 11 11 11 11 11 10 10 10 10 10 10 10 10 10 10 10 10 10 10 10 10 10 10 10 10 10 10 9 9 9 9 9 9 9 9 9
10 10 10 10 10 10 10 10 10 10 10 10 10 10 10 10 10 10 10 10 10 10 10 10 10 9 9 9 9 9 9 9 9 9 9 9 8 8 8 8 9 9 9
10 10 10 10 10 10 10 10 10 10 10 10 10 10 9 9 10 10 9 9 9 9 9 9 9 9 9 8 8 8 8 7 8 8 8 8 8 8 8 8 8 8 8
10 10 10 10 10 9 9 9 9 9 9 9 9 9 9 9 9 9 9 9 9 9 8 8 8 8 8 8 8 7 7 6 6 7 7 7 7 7 7 7 7 7 7
10 10 10 9 9 9 9 9 9 9 9 9 9 9 9 8 8 8 8 8 8 8 8 8 8 8 8 7 7 7 7 6 6 5 6 6 7 7 7 7 6 6 6
10 10 9 9 9 9 9 9 9 9 8 8 8 8 8 8 8 8 8 8 7 7 7 7 7 7 7 7 6 6 6 5 5 5 5 5 6 6 6 6 6 6 6
Wind_Speed
3 4 9 11 12 12 12 12 12 11 11 11 11 11 11 11 11 10 10 9 9 9 9 9 9 9 9 9 9 9 9 10 10 10 9 9 8 7 7 8 7 7 8
5 7 11 12 13 13 12 12 12 11 11 11 11 11 10 10 10 9 9 8 8 8 8 8 8 8 8 8 8 8 8 8 8 8 8 7 6 6 5 6 6 6 7
6 8 11 13 13 13 13 12 12 11 11 10 10 10 10 10 9 8 8 8 7 7 7 7 7 7 7 7 7 7 7 6 5 5 5 5 4 4 4 4 5 5 5
7 8 11 13 13 13 13 12 11 11 10 10 10 9 10 9 9 8 7 7 7 7 7 7 6 6 6 6 5 5 5 4 4 3 3 2 2 2 2 3 3 3 4
6 8 11 14 13 13 12 12 12 11 10 10 9 9 9 8 8 8 7 7 6 6 6 5 5 5 5 5 4 4 4 3 3 3 2 1 2 1 1 1 1 2 2
7 8 11 13 13 12 12 12 11 11 10 9 9 8 8 8 8 7 7 6 6 5 5 5 4 4 4 4 3 3 3 3 3 2 1 1 2 2 1 1 1 2 2
7 8 10 13 13 12 11 11 11 11 10 9 8 8 8 8 7 7 6 6 5 5 4 4 3 3 3 3 3 3 3 3 2 1 1 2 3 4 3 3 3 3 3
8 8 10 12 12 11 11 11 11 10 10 9 8 8 8 8 7 7 6 5 5 4 4 4 3 3 3 3 3 3 3 2 1 1 2 3 4 4 4 4 4 5 5
9 8 8 9 10 10 10 10 10 10 10 9 8 8 8 7 7 7 6 5 5 4 4 3 3 2 2 3 3 3 3 2 1 2 3 4 5 5 5 5 5 6 6
8 8 8 9 9 9 10 10 10 10 10 9 9 8 8 7 7 7 6 5 5 4 4 4 3 3 3 3 3 3 3 3 2 3 4 5 6 6 7 7 6 7 7
8 7 7 7 8 9 9 9 10 10 9 9 9 8 8 7 7 6 6 6 5 5 5 4 4 4 4 4 4 3 3 3 3 4 5 6 7 8 8 8 8 8 8
6 6 6 6 7 8 7 8 9 8 9 9 8 8 8 7 7 6 7 7 7 6 6 6 5 5 5 5 4 4 3 3 3 4 5 6 7 8 8 8 9 9 10
5 5 5 6 7 7 6 7 7 7 8 8 8 8 8 8 7 8 7 7 7 6 6 6 7 6 6 5 5 4 4 3 4 4 6 7 7 8 8 9 9 9 10
6 5 5 5 6 7 7 6 6 6 6 7 7 8 7 6 5 5 5 6 6 6 5 5 5 6 5 5 5 4 4 4 4 5 6 7 7 7 7 8 8 9 10
5 5 4 5 5 6 6 5 6 5 6 6 7 8 7 5 4 4 4 5 6 6 5 4 4 4 4 5 5 4 4 4 4 5 5 6 6 7 6 6 7 8 8
4 4 4 5 5 6 5 5 5 5 6 7 7 7 7 6 5 4 3 4 5 5 5 4 3 3 3 3 3 4 4 4 4 5 5 6 6 6 6 6 6 7 7
4 4 4 4 5 6 5 5 5 6 6 6 7 7 7 7 6 5 3 3 5 6 5 4 4 3 3 3 3 3 3 4 4 4 4 5 5 6 7 7 7 7 7
4 4 4 4 5 5 5 5 5 6 7 6 7 8 8 8 7 5 4 4 6 6 5 2 2 2 3 3 3 3 3 3 4 4 4 5 5 6 7 8 8 8 8
4 4 4 4 4 4 4 5 5 6 6 6 7 8 8 8 8 6 4 5 6 4 3 2 2 2 2 3 3 3 3 2 3 3 4 5 6 6 6 7 8 9 9
3 4 3 4 3 3 4 4 4 4 4 6 7 7 7 8 8 7 5 6 7 3 3 3 2 2 2 3 3 3 2 2 2 2 3 4 6 7 8 8 8 8 10
3 3 2 3 3 3 3 2 2 2 2 3 4 6 7 7 7 6 5 5 5 3 3 3 2 2 2 3 2 3 2 2 2 2 3 3 5 7 8 8 8 8 8
2 2 2 1 1 2 2 1 1 1 1 1 2 5 7 7 7 5 5 4 4 3 4 4 3 2 2 3 2 2 3 3 2 2 3 3 4 5 6 8 8 8 9
2 2 2 1 1 1 1 2 2 2 2 2 2 3 5 6 6 6 5 4 4 3 3 4 3 2 2 2 2 1 1 2 2 2 2 3 4 4 4 5 7 9 9
4 2 2 2 1 1 1 2 1 1 0 1 1 2 3 5 5 5 5 4 3 2 3 3 3 2 1 1 2 2 0 1 1 3 2 2 3 3 4 4 5 7 9
3 3 2 2 2 1 1 2 1 1 1 1 1 2 3 3 4 4 4 3 3 2 2 2 3 2 1 0 1 1 1 1 1 2 3 3 3 2 2 3 3 5 7
3 2 2 2 2 2 2 2 2 2 2 1 2 2 2 2 2 3 3 3 3 2 2 2 2 2 1 1 1 1 1 1 1 1 3 4 4 3 2 1 2 4 6
Wind_Direction
163 169 155 143 135 129 122 116 112 109 105 105 109 108 106 104 102 100 98 95 93 92 91 88 85 86 85 86 87 84 79 76 72 67 67 69 69 73 76 76 77 78 84
150 156 152 144 137 130 124 118 113 109 107 102 104 106 105 103 100 97 95 94 93 91 91 92 90 87 84 84 85 83 80 79 75 69 65 63 60 67 80 84 85 85 87
135 143 142 137 134 129 124 119 114 110 107 103 103 105 105 102 99 95 94 93 91 88 86 87 88 89 86 84 83 82 77 77 75 75 67 52 48 62 81 92 98 96 93
130 135 138 133 132 129 125 120 115 111 108 105 101 103 102 100 95 89 89 94 89 85 85 82 80 83 82 82 80 80 77 69 66 76 66 38 19 48 70 86 103 108 108
109 120 131 129 128 127 124 121 116 111 107 104 99 101 102 100 95 88 83 89 89 86 84 81 76 79 76 73 70 69 65 60 58 66 58 10 342 3 26 48 103 125 129
97 103 123 123 122 123 122 120 117 112 108 105 101 100 101 98 94 88 83 81 83 86 86 83 79 75 71 61 56 49 45 49 56 51 15 303 290 294 301 280 243 206 180
99 91 112 117 117 117 120 119 117 112 108 104 101 99 98 96 93 88 83 79 77 79 79 76 70 64 57 45 34 24 22 34 56 37 323 288 272 273 270 252 238 230 221
99 88 99 109 111 110 110 113 112 111 106 100 96 94 95 93 90 86 82 77 74 72 66 60 57 50 39 26 20 15 12 5 16 336 294 281 275 275 264 252 239 234 231
85 81 80 93 98 101 101 100 103 106 102 98 93 88 87 87 85 80 74 70 68 62 56 47 39 26 13 4 2 359 352 344 332 292 289 278 277 278 270 260 246 239 237
77 74 71 77 85 87 88 90 90 95 95 92 87 82 79 78 76 72 65 60 56 50 47 40 28 15 4 358 353 346 345 341 317 294 286 285 286 284 278 266 257 249 244
73 64 67 69 73 79 83 83 82 82 85 82 76 75 73 66 63 61 57 54 49 41 34 29 23 17 10 2 358 352 351 337 315 297 286 288 291 290 284 274 261 256 252
85 65 58 64 65 71 79 74 70 70 71 72 71 66 63 64 59 55 51 49 46 40 33 26 21 19 17 8 359 358 348 330 316 298 293 297 297 295 292 285 270 259 256
95 77 60 60 64 66 68 70 65 64 63 60 61 63 63 60 53 46 42 33 31 31 24 16 18 15 12 4 356 350 337 328 315 305 303 306 304 301 297 292 284 269 262
94 83 69 62 65 64 67 67 65 62 59 53 52 58 60 53 45 40 37 26 25 21 16 13 8 5 3 358 351 345 340 328 316 312 312 317 317 312 307 303 296 286 275
93 81 67 67 67 63 61 58 56 56 59 55 52 50 55 54 44 37 32 26 21 17 13 5 0 354 351 347 344 342 335 332 324 323 321 326 328 327 320 317 313 309 299
95 85 72 66 66 68 64 60 55 51 52 55 51 48 50 50 43 37 31 25 15 7 3 0 352 340 330 333 335 335 329 331 330 329 328 332 340 343 342 336 332 326 320
95 84 76 75 65 66 63 58 57 51 53 50 45 46 46 45 42 39 32 21 8 6 7 6 1 360 354 352 342 336 337 341 345 348 351 352 353 359 5 4 358 352 346
90 81 70 70 65 63 65 63 59 55 53 48 44 44 41 41 44 44 35 14 6 15 15 6 3 352 349 349 339 335 346 354 1 6 15 15 13 10 10 12 8 3 356
102 92 77 67 65 64 68 68 64 58 49 44 43 41 38 37 40 44 39 19 11 20 20 8 13 360 340 341 330 334 347 352 1 21 29 27 23 18 9 5 7 4 359
99 88 83 74 63 63 65 61 54 51 40 41 39 35 37 35 35 39 38 25 19 19 16 8 355 357 337 328 330 341 341 345 11 26 27 31 29 23 14 8 2 357 358
103 99 87 75 56 55 54 51 45 26 17 24 27 30 31 31 33 39 32 26 24 22 12 360 352 358 359 347 0 346 343 356 26 31 36 40 36 27 23 19 14 9 1
154 138 121 109 78 62 69 85 102 97 39 24 9 23 26 27 27 33 32 25 26 18 18 17 15 5 0 13 20 358 342 342 360 17 32 42 31 28 28 21 18 17 9
193 184 180 168 124 81 75 79 67 51 27 12 2 1 8 17 24 28 27 27 25 30 13 5 14 30 352 350 20 40 13 308 319 328 17 30 20 16 13 16 16 11 8
214 196 188 176 164 139 108 107 120 134 283 290 316 335 353 9 11 17 20 21 21 23 13 0 15 2 10 339 341 3 299 245 289 308 310 2 12 10 5 5 8 7 8
194 185 193 188 188 164 142 150 142 176 239 292 326 336 344 350 353 4 8 11 10 5 3 3 4 2 10 328 330 325 326 326 266 262 291 313 333 339 357 349 6 11 8
180 184 191 199 216 198 185 179 180 207 230 274 300 307 317 322 331 346 353 4 357 353 343 343 353 0 360 1 349 322 295 301 307 286 286 304 305 301 318 344 5 7 8
Height
1517 1520 1522 1525 1527 1529 1530 1532 1533 1534 1535 1536 1537 1537 1538 1539 1539 1540 1540 1540 1541 1541 1542 1542 1542 1543 1543 1543 1543 1544 1544 1544 1544 1544 1544 1544 1544 1544 1545 1545 1545 1545 1545
1516 1519 1522 1524 1527 1529 1530 1532 1533 1534 1535 1536 1537 1538 1538 1539 1540 1540 1540 1541 1541 1542 1542 1543 1543 1543 1544 1544 1544 1544 1544 1545 1545 1545 1545 1545 1545 1545 1545 1545 1545 1545 1546
1516 1519 1522 1524 1527 1528 1530 1532 1533 1534 1535 1536 1537 1538 1539 1539 1540 1540 1541 1541 1542 1542 1543 1543 1543 1544 1544 1544 1545 1545 1545 1545 1545 1545 1545 1545 1545 1545 1546 1546 1546 1546 1546
1516 1519 1522 1524 1526 1528 1530 1532 1533 1534 1535 1536 1537 1538 1539 1539 1540 1541 1541 1542 1542 1542 1543 1543 1544 1544 1544 1545 1545 1545 1545 1545 1545 1545 1546 1546 1546 1546 1546 1546 1546 1546 1546
1517 1519 1522 1524 1526 1528 1530 1531 1533 1534 1535 1536 1537 1538 1539 1539 1540 1541 1541 1541 1542 1542 1543 1543 1544 1544 1544 1545 1545 1545 1545 1545 1545 1545 1545 1546 1546 1546 1546 1546 1546 1546 1546
1517 1520 1522 1525 1526 1528 1530 1531 1533 1534 1535 1536 1537 1538 1539 1539 1540 1540 1541 1541 1542 1542 1543 1543 1543 1544 1544 1544 1544 1544 1545 1545 1545 1545 1545 1545 1545 1545 1546 1546 1546 1546 1546
1517 1520 1522 1525 1527 1528 1530 1531 1532 1534 1535 1536 1537 1538 1538 1539 1540 1540 1541 1541 1541 1542 1542 1542 1543 1543 1543 1543 1543 1544 1544 1544 1544 1544 1544 1545 1545 1545 1545 1545 1545 1545 1545
1517 1520 1522 1525 1527 1528 1530 1531 1532 1534 1535 1536 1537 1537 1538 1539 1539 1540 1540 1540 1541 1541 1541 1542 1542 1542 1542 1542 1542 1542 1543 1543 1543 1543 1543 1543 1544 1544 1544 1544 1544 1544 1544
1518 1520 1523 1525 1527 1528 1530 1531 1532 1533 1534 1536 1536 1537 1538 1538 1539 1539 1539 1540 1540 1540 1540 1541 1541 1541 1541 1541 1541 1541 1541 1541 1541 1542 1542 1542 1542 1542 1543 1543 1543 1543 1543
1518 1520 1522 1524 1526 1528 1529 1531 1532 1533 1534 1535 1536 1536 1537 1538 1538 1538 1539 1539 1539 1539 1539 1539 1539 1539 1540 1540 1540 1540 1540 1539 1540 1540 1540 1540 1540 1541 1541 1541 1541 1541 1541
1518 1520 1522 1524 1526 1528 1529 1530 1532 1532 1533 1534 1535 1536 1536 1537 1537 1537 1538 1538 1538 1538 1538 1538 1538 1538 1538 1538 1538 1538 1538 1538 1538 1538 1538 1538 1538 1538 1539 1539 1539 1539 1539
1517 1520 1522 1524 1525 1527 1528 1530 1531 1532 1533 1534 1534 1535 1535 1536 1536 1536 1536 1537 1537 1537 1537 1536 1536 1536 1536 1536 1536 1536 1536 1535 1535 1535 1535 1536 1536 1536 1536 1536 1536 1537 1537
1517 1519 1521 1523 1525 1526 1528 1529 1530 1531 1532 1532 1533 1534 1534 1535 1535 1535 1535 1535 1535 1535 1535 1535 1535 1534 1534 1534 1534 1533 1533 1533 1533 1533 1533 1533 1533 1533 1533 1533 1534 1534 1534
1518 1520 1522 1523 1525 1526 1527 1528 1529 1530 1531 1531 1532 1533 1533 1533 1534 1534 1534 1534 1533 1533 1533 1533 1533 1533 1532 1532 1531 1531 1531 1530 1530 1530 1530 1530 1530 1530 1530 1530 1530 1530 1531
1518 1520 1521 1523 1524 1525 1526 1527 1528 1529 1530 1530 1530 1531 1532 1532 1532 1532 1532 1532 1532 1531 1531 1531 1531 1530 1530 1530 1529 1529 1528 1528 1527 1527 1527 1527 1527 1527 1527 1527 1527 1527 1527
1519 1520 1521 1522 1523 1525 1526 1527 1527 1528 1528 1529 1529 1529 1530 1530 1530 1530 1531 1530 1530 1530 1529 1529 1529 1528 1528 1527 1527 1526 1525 1525 1524 1524 1524 1524 1523 1523 1523 1523 1523 1523 1523
1519 1520 1521 1522 1523 1524 1525 1526 1527 1527 1527 1528 1528 1528 1528 1529 1528 1528 1528 1528 1528 1528 1527 1527 1526 1526 1525 1525 1524 1523 1523 1522 1522 1521 1521 1520 1520 1520 1519 1519 1520 1520 1520
1519 1520 1521 1522 1523 1524 1525 1525 1526 1526 1526 1526 1527 1527 1527 1527 1527 1527 1526 1526 1526 1526 1525 1525 1524 1523 1523 1522 1521 1521 1520 1519 1519 1518 1518 1517 1517 1517 1516 1516 1516 1516 1516
1519 1520 1521 1522 1523 1523 1524 1525 1525 1525 1525 1525 1525 1526 1525 1525 1525 1525 1525 1524 1524 1524 1523 1522 1522 1521 1520 1519 1519 1518 1517 1517 1516 1516 1515 1515 1514 1514 1513 1513 1512 1512 1512
1519 1520 1521 1522 1522 1523 1524 1524 1525 1525 1525 1524 1524 1524 1524 1523 1523 1523 1522 1522 1522 1521 1521 1520 1519 1518 1518 1517 1516 1516 1515 1514 1514 1514 1513 1513 1512 1511 1511 1510 1509 1509 1508
1519 1520 1520 1521 1522 1523 1523 1523 1524 1524 1524 1524 1523 1523 1522 1522 1522 1521 1521 1520 1519 1519 1518 1517 1517 1516 1515 1514 1514 1513 1512 1512 1512 1511 1511 1510 1510 1509 1508 1507 1506 1505 1505
1518 1519 1520 1521 1522 1522 1522 1522 1523 1523 1523 1523 1522 1521 1521 1520 1520 1519 1519 1518 1517 1516 1516 1515 1514 1513 1513 1512 1512 1510 1510 1510 1509 1509 1509 1508 1507 1507 1505 1504 1503 1502 1501
1517 1518 1520 1520 1521 1521 1521 1522 1522 1522 1521 1521 1521 1520 1519 1519 1518 1517 1516 1515 1515 1514 1514 1513 1512 1511 1510 1510 1510 1510 1509 1508 1507 1506 1506 1506 1505 1504 1503 1502 1500 1499 1498
1516 1517 1518 1519 1520 1520 1520 1520 1520 1520 1520 1520 1519 1518 1518 1517 1516 1515 1514 1513 1513 1512 1511 1510 1509 1509 1508 1508 1508 1508 1508 1507 1506 1504 1503 1503 1502 1501 1500 1498 1497 1496 1495
1515 1516 1517 1518 1518 1519 1519 1519 1519 1519 1518 1518 1517 1516 1516 1515 1514 1513 1512 1512 1511 1510 1509 1508 1507 1506 1506 1505 1505 1505 1504 1504 1503 1503 1500 1499 1498 1497 1496 1495 1494 1493 1491
1513 1514 1515 1516 1516 1517 1517 1517 1517 1517 1516 1516 1515 1514 1514 1513 1512 1511 1510 1509 1508 1508 1507 1506 1505 1504 1503 1503 1502 1502 1502 1501 1501 1500 1498 1495 1494 1493 1493 1492 1491 1489 1488